STARLINK-3060, 49155

Orbit data source: Space-Track

STARLINK-3060, 49155 is a payload satellite owned by SpaceX/Seattle (US) in LEO that was launched on Tue, 14 Sep 2021 UTC via an FALCON 9 launch vehicle from the Air Force Western Test Range (AFWTR). Payload-class satellites include a variety of spacecraft equipped with specific instruments for various scientific and technological missions. These include communications satellites like Starlink; space stations such as the ISS; scientific satellites like the Hubble; Earth observation satellites from companies like Planet Labs, Umbra, and HawkEye 360; GPS; miniature CubeSats for education and research; and military/defense satellites.

Loading next visibility...
Identifier
49155, 2021-082AB
Orbit
LEO
Country
Flag of USUS
Related business
Manufacturer
SpaceX/Seattle
Mission
Operational Commercial Communications
Bus & Motor
STARLINK, Unknown motor
Mass
297 kg wet, ~275 kg dry
Launch date (UTC)
2021-09-14 (4 years ago)
Launch vehicle
FALCON 9
Launch site
Air Force Western Test Range (AFWTR)
Object type
Payload
Rocket body
Debris
Shape & HBR
Box + 1 Pan, 10.1 m
Radar Cross Section
13.562 m², Large (>1 m²)

Expand to show TLE details & history
Last TLE update: 17 hours ago

TLE from 17 hours ago
0 STARLINK-3060
1 49155U 21082AB  25289.29499098  .00001266  00000-0  11385-3 0  9999
2 49155  69.9986 258.5140 0003391 275.4356  84.6416 14.98327373226417
Epoch: 2025-10-16T07:04Z
TLE epoch observation values (Epoch: 2025-10-16T07:04:47.220Z)
Latitude
-0.00005°
Longitude
127.26046°
Altitude
574.268 km
Speed
7.574 km/s
True Right ascension
17h 14m 03s
True Declination
0° 00' 00"
Sunlit
Object was in daylight at epoch
Visualization orbit readout
Latitude
Unknown
Longitude
Unknown
Altitude
Unknown
Speed
Unknown
Apparent Right ascension
Unknown
Apparent Declination
Unknown
Sunlit
N/A
Visualization observer readout
Local Sidereal Time
18:29:18
Azimuth
Unknown
Elevation
Unknown
Doppler factor
Unknown
Orbital elements
Apogee altitude
572.369 km
Perigee altitude
567.656 km
Semi-major axis
6,948.149 km
Eccentricity
0.00034
Inclination
69.9986°
RAAN
258.514°
Arg. of periapsis
275.4356°
True anomaly
84.68029°
Mean anomaly
84.6416°
Eccentric anomaly
84.66094°
Mean motion
3.74748 °/min
Orbital period
96.06 mins
BSTAR
0.00011385
Loading maneuver chart data...
Computing Atmospheric mass density...
Loading historical data...
Loading historical data...
Loading historical data...
Loading historical data...
Loading historical data...
Loading historical data...
Loading historical data...

Documentation

Showing up to 5 results
|